Tracking 19149 objects as of 22-Apr-2018
HD Live streaming from Space Station
objects crossing your sky now

FENGYUN 1C DEB

Track FENGYUN 1C DEB now!
10-day predictions


NORAD ID: 30171
Int'l Code: 1999-025UC
Perigee: 779.8 km
Apogee: 1,056.9 km
Inclination: 98.4 °
Period: 103.2 minutes
Semi major axis: 7289 km
RCS: 0.0528 m2 (small)
Launch date: May 10, 1999
Source: People's Republic of China (PRC)
Launch site: Taiyaun Space Center, China (TSC)

Note: This is SATELLITE DEBRIS
aabbcc
Your satellite tracking list
Your tracking list is empty




NASA's NSSDC Master Catalog

Two Line Element Set (TLE):
1 30171U 99025UC  18111.73263142  .00000306  00000-0  21963-3 0  9990
2 30171  98.4295 168.0200 0190054 138.5332 223.0432 13.94989127573400
Source of the keplerian elements: AFSPC